Location: Litvinovka
(48.6667°N, 34.3500°E)
Time: 07:15:47
(UTC+00:00)

Cosmos 1626 - Pass Details

Date: 18 September 2020
Orbit: 490 x 495 km, 82.5° (Epoch: 22 October)

Event Time Altitude Azimuth Distance (km) Brightness Sun altitude
Rises 18:38:38 0° 346° (NNW) 2,589 6.5 -26.9°
Reaches altitude 10° 18:40:47 10° 342° (NNW) 1,700 5.5 -27.1°
Enters shadow 18:43:01 33° 325° (NW) 859 3.8 -27.4°
